owner,sensor,date,latitude,longitude,vertical_datum,wind_speed,wind_to_direction,wind_speed_of_gust,qcFlag 
ADCP,ioos:station:wmo:42369:1,2015-09-01T00:00:00Z,27.2070,-90.2830,60.4,3.5,38.0,99.0,'11111222,11111222,11144222' 
ADCP,ioos:station:wmo:42369:1,2015-09-01T00:20:00Z,27.2070,-90.2830,60.4,3.5,38.0,99.0,'11111222,11111222,11144222' 
ADCP,ioos:station:wmo:42369:1,2015-09-01T00:40:00Z,27.2070,-90.2830,60.4,3.4,39.0,99.0,'11111222,11111222,11144222' 
ADCP,ioos:station:wmo:42369:1,2015-09-01T01:00:00Z,27.2070,-90.2830,60.4,3.1,37.0,99.0,'11111222,11111222,11144222' 
ADCP,ioos:station:wmo:42369:1,2015-09-01T01:20:00Z,27.2070,-90.2830,60.4,3.1,37.0,99.0,'11111222,11111222,11144222' 
ADCP,ioos:station:wmo:42369:1,2015-09-01T01:40:00Z,27.2070,-90.2830,60.4,3.1,37.0,99.0,'11111222,11111222,11144222' 
ADCP,ioos:station:wmo:42369:1,2015-09-01T02:00:00Z,27.2070,-90.2830,60.4,3.1,37.0,99.0,'11111222,11111222,11144222' 
ADCP,ioos:station:wmo:42369:1,2015-09-01T02:20:00Z,27.2070,-90.2830,60.4,3.1,37.0,99.0,'11111222,11111222,11144222' 
ADCP,ioos:station:wmo:42369:1,2015-09-01T02:40:00Z,27.2070,-90.2830,60.4,3.1,37.0,99.0,'11111222,11111222,11144222' 
ADCP,ioos:station:wmo:42369:1,2015-09-01T03:00:00Z,27.2070,-90.2830,60.4,3.1,37.0,99.0,'11111222,11111222,11144222' 
ADCP,ioos:station:wmo:42369:1,2015-09-01T03:20:00Z,27.2070,-90.2830,60.4,5.9,52.0,99.0,'11111222,11111222,11144222' 
ADCP,ioos:station:wmo:42369:1,2015-09-01T03:40:00Z,27.2070,-90.2830,60.4,5.8,51.0,99.0,'11111222,11111222,11144222' 
ADCP,ioos:station:wmo:42369:1,2015-09-01T04:00:00Z,27.2070,-90.2830,60.4,5.8,51.0,99.0,'11111222,11111222,11144222' 
ADCP,ioos:station:wmo:42369:1,2015-09-01T04:20:00Z,27.2070,-90.2830,60.4,5.8,51.0,99.0,'11111222,11111222,11144222' 
ADCP,ioos:station:wmo:42369:1,2015-09-01T04:40:00Z,27.2070,-90.2830,60.4,4.9,53.0,99.0,'11111222,11111222,11144222' 
ADCP,ioos:station:wmo:42369:1,2015-09-01T05:00:00Z,27.2070,-90.2830,60.4,4.8,58.0,99.0,'11111222,11111222,11144222' 
ADCP,ioos:station:wmo:42369:1,2015-09-01T05:20:00Z,27.2070,-90.2830,60.4,5.0,57.0,99.0,'11111222,11111222,11144222' 
ADCP,ioos:station:wmo:42369:1,2015-09-01T05:40:00Z,27.2070,-90.2830,60.4,5.0,57.0,99.0,'11111222,11111222,11144222' 
ADCP,ioos:station:wmo:42369:1,2015-09-01T06:00:00Z,27.2070,-90.2830,60.4,3.5,61.0,99.0,'11111222,11111222,11144222' 
ADCP,ioos:station:wmo:42369:1,2015-09-01T06:20:00Z,27.2070,-90.2830,60.4,3.5,61.0,99.0,'11111222,11111222,11144222' 
ADCP,ioos:station:wmo:42369:1,2015-09-01T06:40:00Z,27.2070,-90.2830,60.4,3.0,62.0,99.0,'11111222,11111222,11144222' 
ADCP,ioos:station:wmo:42369:1,2015-09-01T07:00:00Z,27.2070,-90.2830,60.4,3.0,62.0,99.0,'11111222,11111222,11144222' 
ADCP,ioos:station:wmo:42369:1,2015-09-01T07:20:00Z,27.2070,-90.2830,60.4,2.8,55.0,99.0,'11111222,11111222,11144222' 
ADCP,ioos:station:wmo:42369:1,2015-09-01T07:40:00Z,27.2070,-90.2830,60.4,2.8,55.0,99.0,'11111222,11111222,11144222' 
ADCP,ioos:station:wmo:42369:1,2015-09-01T08:00:00Z,27.2070,-90.2830,60.4,2.0,73.0,99.0,'11111222,11111222,11144222' 
ADCP,ioos:station:wmo:42369:1,2015-09-01T08:20:00Z,27.2070,-90.2830,60.4,2.0,73.0,99.0,'11111222,11111222,11144222' 
ADCP,ioos:station:wmo:42369:1,2015-09-01T08:40:00Z,27.2070,-90.2830,60.4,2.1,62.0,99.0,'11111222,11111222,11144222' 
ADCP,ioos:station:wmo:42369:1,2015-09-01T09:00:00Z,27.2070,-90.2830,60.4,2.2,81.0,99.0,'11111222,11111222,11144222' 
ADCP,ioos:station:wmo:42369:1,2015-09-01T09:20:00Z,27.2070,-90.2830,60.4,2.2,81.0,99.0,'11111222,11111222,11144222' 
ADCP,ioos:station:wmo:42369:1,2015-09-01T09:40:00Z,27.2070,-90.2830,60.4,2.2,81.0,99.0,'11111222,11111222,11144222' 
ADCP,ioos:station:wmo:42369:1,2015-09-01T10:00:00Z,27.2070,-90.2830,60.4,2.2,81.0,99.0,'11111222,11111222,11144222' 
ADCP,ioos:station:wmo:42369:1,2015-09-01T10:20:00Z,27.2070,-90.2830,60.4,3.6,59.0,99.0,'11111222,11111222,11144222' 
ADCP,ioos:station:wmo:42369:1,2015-09-01T10:40:00Z,27.2070,-90.2830,60.4,3.6,59.0,99.0,'11111222,11111222,11144222' 
ADCP,ioos:station:wmo:42369:1,2015-09-01T11:00:00Z,27.2070,-90.2830,60.4,3.6,59.0,99.0,'11111222,11111222,11144222' 
ADCP,ioos:station:wmo:42369:1,2015-09-01T11:20:00Z,27.2070,-90.2830,60.4,3.6,59.0,99.0,'11111222,11111222,11144222' 
ADCP,ioos:station:wmo:42369:1,2015-09-01T11:40:00Z,27.2070,-90.2830,60.4,4.3,55.0,99.0,'11111222,11111222,11144222' 
ADCP,ioos:station:wmo:42369:1,2015-09-01T12:00:00Z,27.2070,-90.2830,60.4,5.0,52.0,99.0,'11111222,11111222,11144222' 
ADCP,ioos:station:wmo:42369:1,2015-09-01T12:20:00Z,27.2070,-90.2830,60.4,4.9,52.0,99.0,'11111222,11111222,11144222' 
ADCP,ioos:station:wmo:42369:1,2015-09-01T12:40:00Z,27.2070,-90.2830,60.4,4.9,52.0,99.0,'11111222,11111222,11144222' 
ADCP,ioos:station:wmo:42369:1,2015-09-01T13:00:00Z,27.2070,-90.2830,60.4,5.0,53.0,99.0,'11111222,11111222,11144222' 
ADCP,ioos:station:wmo:42369:1,2015-09-01T13:20:00Z,27.2070,-90.2830,60.4,5.0,53.0,99.0,'11111222,11111222,11144222' 
ADCP,ioos:station:wmo:42369:1,2015-09-01T13:40:00Z,27.2070,-90.2830,60.4,5.2,55.0,99.0,'11111222,11111222,11144222' 
ADCP,ioos:station:wmo:42369:1,2015-09-01T14:00:00Z,27.2070,-90.2830,60.4,5.2,55.0,99.0,'11111222,11111222,11144222' 
ADCP,ioos:station:wmo:42369:1,2015-09-01T14:20:00Z,27.2070,-90.2830,60.4,5.2,56.0,99.0,'11111222,11111222,11144222' 
ADCP,ioos:station:wmo:42369:1,2015-09-01T14:40:00Z,27.2070,-90.2830,60.4,3.9,62.0,99.0,'11111222,11111222,11144222' 
ADCP,ioos:station:wmo:42369:1,2015-09-01T15:00:00Z,27.2070,-90.2830,60.4,3.9,62.0,99.0,'11111222,11111222,11144222' 
ADCP,ioos:station:wmo:42369:1,2015-09-01T15:20:00Z,27.2070,-90.2830,60.4,3.7,60.0,99.0,'11111222,11111222,11144222' 
ADCP,ioos:station:wmo:42369:1,2015-09-01T15:40:00Z,27.2070,-90.2830,60.4,4.3,60.0,99.0,'11111222,11111222,11144222' 
ADCP,ioos:station:wmo:42369:1,2015-09-01T16:00:00Z,27.2070,-90.2830,60.4,4.1,60.0,99.0,'11111222,11111222,11144222' 
ADCP,ioos:station:wmo:42369:1,2015-09-01T16:20:00Z,27.2070,-90.2830,60.4,4.1,60.0,99.0,'11111222,11111222,11144222' 
ADCP,ioos:station:wmo:42369:1,2015-09-01T16:40:00Z,27.2070,-90.2830,60.4,4.1,60.0,99.0,'11111222,11111222,11144222' 
ADCP,ioos:station:wmo:42369:1,2015-09-01T17:00:00Z,27.2070,-90.2830,60.4,3.5,61.0,99.0,'11111222,11111222,11144222' 
ADCP,ioos:station:wmo:42369:1,2015-09-01T17:20:00Z,27.2070,-90.2830,60.4,3.5,61.0,99.0,'11111222,11111222,11144222' 
ADCP,ioos:station:wmo:42369:1,2015-09-01T17:40:00Z,27.2070,-90.2830,60.4,3.5,61.0,99.0,'11111222,11111222,11144222' 
ADCP,ioos:station:wmo:42369:1,2015-09-01T18:00:00Z,27.2070,-90.2830,60.4,3.5,61.0,99.0,'11111222,11111222,11144222' 
ADCP,ioos:station:wmo:42369:1,2015-09-01T18:20:00Z,27.2070,-90.2830,60.4,4.3,54.0,99.0,'11111222,11111222,11144222' 
ADCP,ioos:station:wmo:42369:1,2015-09-01T18:40:00Z,27.2070,-90.2830,60.4,4.2,53.0,99.0,'11111222,11111222,11144222' 
ADCP,ioos:station:wmo:42369:1,2015-09-01T19:00:00Z,27.2070,-90.2830,60.4,4.2,53.0,99.0,'11111222,11111222,11144222' 
ADCP,ioos:station:wmo:42369:1,2015-09-01T19:20:00Z,27.2070,-90.2830,60.4,4.2,53.0,99.0,'11111222,11111222,11144222' 
ADCP,ioos:station:wmo:42369:1,2015-09-01T19:40:00Z,27.2070,-90.2830,60.4,4.1,52.0,99.0,'11111222,11111222,11144222' 
ADCP,ioos:station:wmo:42369:1,2015-09-01T20:00:00Z,27.2070,-90.2830,60.4,3.8,48.0,99.0,'11111222,11111222,11144222' 
ADCP,ioos:station:wmo:42369:1,2015-09-01T20:20:00Z,27.2070,-90.2830,60.4,4.4,52.0,99.0,'11111222,11111222,11144222' 
ADCP,ioos:station:wmo:42369:1,2015-09-01T20:40:00Z,27.2070,-90.2830,60.4,5.2,50.0,99.0,'11111222,11111222,11144222' 
ADCP,ioos:station:wmo:42369:1,2015-09-01T21:00:00Z,27.2070,-90.2830,60.4,4.4,48.0,99.0,'11111222,11111222,11144222' 
ADCP,ioos:station:wmo:42369:1,2015-09-01T21:20:00Z,27.2070,-90.2830,60.4,4.4,48.0,99.0,'11111222,11111222,11144222' 
ADCP,ioos:station:wmo:42369:1,2015-09-01T21:40:00Z,27.2070,-90.2830,60.4,4.4,48.0,99.0,'11111222,11111222,11144222' 
ADCP,ioos:station:wmo:42369:1,2015-09-01T22:00:00Z,27.2070,-90.2830,60.4,4.4,48.0,99.0,'11111222,11111222,11144222' 
ADCP,ioos:station:wmo:42369:1,2015-09-01T22:20:00Z,27.2070,-90.2830,60.4,4.7,50.0,99.0,'11111222,11111222,11144222' 
ADCP,ioos:station:wmo:42369:1,2015-09-01T22:40:00Z,27.2070,-90.2830,60.4,4.7,50.0,99.0,'11111222,11111222,11144222' 
ADCP,ioos:station:wmo:42369:1,2015-09-01T23:00:00Z,27.2070,-90.2830,60.4,5.1,47.0,99.0,'11111222,11111222,11144222' 
ADCP,ioos:station:wmo:42369:1,2015-09-01T23:20:00Z,27.2070,-90.2830,60.4,5.1,47.0,99.0,'11111222,11111222,11144222' 
ADCP,ioos:station:wmo:42369:1,2015-09-01T23:40:00Z,27.2070,-90.2830,60.4,4.4,53.0,99.0,'11111222,11111222,11144222' 
ADCP,ioos:station:wmo:42369:1,2015-09-02T00:00:00Z,27.2070,-90.2830,60.4,5.0,49.0,99.0,'11111222,11111222,11144222' 
ADCP,ioos:station:wmo:42369:1,2015-09-02T00:20:00Z,27.2070,-90.2830,60.4,5.5,52.0,99.0,'11111222,11111222,11144222' 
ADCP,ioos:station:wmo:42369:1,2015-09-02T00:40:00Z,27.2070,-90.2830,60.4,7.3,60.0,99.0,'11111222,11111222,11144222' 
ADCP,ioos:station:wmo:42369:1,2015-09-02T01:00:00Z,27.2070,-90.2830,60.4,7.3,60.0,99.0,'11111222,11111222,11144222' 
ADCP,ioos:station:wmo:42369:1,2015-09-02T01:20:00Z,27.2070,-90.2830,60.4,7.3,60.0,99.0,'11111222,11111222,11144222' 
ADCP,ioos:station:wmo:42369:1,2015-09-02T01:40:00Z,27.2070,-90.2830,60.4,7.3,60.0,99.0,'11111222,11111222,11144222' 
ADCP,ioos:station:wmo:42369:1,2015-09-02T02:00:00Z,27.2070,-90.2830,60.4,7.3,60.0,99.0,'11111222,11111222,11144222' 
ADCP,ioos:station:wmo:42369:1,2015-09-02T02:20:00Z,27.2070,-90.2830,60.4,4.5,53.0,99.0,'11111222,11111222,11144222' 
ADCP,ioos:station:wmo:42369:1,2015-09-02T02:40:00Z,27.2070,-90.2830,60.4,4.5,53.0,99.0,'11111222,11111222,11144222' 
ADCP,ioos:station:wmo:42369:1,2015-09-02T03:00:00Z,27.2070,-90.2830,60.4,4.3,56.0,99.0,'11111222,11111222,11144222' 
ADCP,ioos:station:wmo:42369:1,2015-09-02T03:20:00Z,27.2070,-90.2830,60.4,4.3,56.0,99.0,'11111222,11111222,11144222' 
ADCP,ioos:station:wmo:42369:1,2015-09-02T03:40:00Z,27.2070,-90.2830,60.4,4.3,56.0,99.0,'11111222,11111222,11144222' 
ADCP,ioos:station:wmo:42369:1,2015-09-02T04:00:00Z,27.2070,-90.2830,60.4,4.3,56.0,99.0,'11111222,11111222,11144222' 
ADCP,ioos:station:wmo:42369:1,2015-09-02T04:20:00Z,27.2070,-90.2830,60.4,3.3,65.0,99.0,'11111222,11111222,11144222' 
ADCP,ioos:station:wmo:42369:1,2015-09-02T04:40:00Z,27.2070,-90.2830,60.4,3.3,65.0,99.0,'11111222,11111222,11144222' 
ADCP,ioos:station:wmo:42369:1,2015-09-02T05:00:00Z,27.2070,-90.2830,60.4,4.6,60.0,99.0,'11111222,11111222,11144222' 
ADCP,ioos:station:wmo:42369:1,2015-09-02T05:20:00Z,27.2070,-90.2830,60.4,4.6,60.0,99.0,'11111222,11111222,11144222' 
ADCP,ioos:station:wmo:42369:1,2015-09-02T05:40:00Z,27.2070,-90.2830,60.4,4.4,62.0,99.0,'11111222,11111222,11144222' 
ADCP,ioos:station:wmo:42369:1,2015-09-02T06:00:00Z,27.2070,-90.2830,60.4,4.4,62.0,99.0,'11111222,11111222,11144222' 
ADCP,ioos:station:wmo:42369:1,2015-09-02T06:20:00Z,27.2070,-90.2830,60.4,3.3,60.0,99.0,'11111222,11111222,11144222' 
ADCP,ioos:station:wmo:42369:1,2015-09-02T06:40:00Z,27.2070,-90.2830,60.4,3.3,60.0,99.0,'11111222,11111222,11144222' 
ADCP,ioos:station:wmo:42369:1,2015-09-02T07:00:00Z,27.2070,-90.2830,60.4,3.3,60.0,99.0,'11111222,11111222,11144222' 
ADCP,ioos:station:wmo:42369:1,2015-09-02T07:20:00Z,27.2070,-90.2830,60.4,3.3,60.0,99.0,'11111222,11111222,11144222' 
ADCP,ioos:station:wmo:42369:1,2015-09-02T07:40:00Z,27.2070,-90.2830,60.4,5.1,80.0,99.0,'11111222,11111222,11144222' 
ADCP,ioos:station:wmo:42369:1,2015-09-02T08:00:00Z,27.2070,-90.2830,60.4,5.1,80.0,99.0,'11111222,11111222,11144222' 
ADCP,ioos:station:wmo:42369:1,2015-09-02T08:20:00Z,27.2070,-90.2830,60.4,5.1,80.0,99.0,'11111222,11111222,11144222' 
ADCP,ioos:station:wmo:42369:1,2015-09-02T08:40:00Z,27.2070,-90.2830,60.4,5.1,80.0,99.0,'11111222,11111222,11144222' 
ADCP,ioos:station:wmo:42369:1,2015-09-02T09:00:00Z,27.2070,-90.2830,60.4,2.9,91.0,99.0,'11111222,11111222,11144222' 
ADCP,ioos:station:wmo:42369:1,2015-09-02T09:20:00Z,27.2070,-90.2830,60.4,2.9,91.0,99.0,'11111222,11111222,11144222' 
ADCP,ioos:station:wmo:42369:1,2015-09-02T09:40:00Z,27.2070,-90.2830,60.4,2.9,91.0,99.0,'11111222,11111222,11144222' 
ADCP,ioos:station:wmo:42369:1,2015-09-02T10:00:00Z,27.2070,-90.2830,60.4,3.1,88.0,99.0,'11111222,11111222,11144222' 
ADCP,ioos:station:wmo:42369:1,2015-09-02T10:20:00Z,27.2070,-90.2830,60.4,3.1,88.0,99.0,'11111222,11111222,11144222' 
ADCP,ioos:station:wmo:42369:1,2015-09-02T10:40:00Z,27.2070,-90.2830,60.4,2.1,100.0,99.0,'11111222,11111222,11144222' 
ADCP,ioos:station:wmo:42369:1,2015-09-02T11:00:00Z,27.2070,-90.2830,60.4,2.1,100.0,99.0,'11111222,11111222,11144222' 
ADCP,ioos:station:wmo:42369:1,2015-09-02T11:20:00Z,27.2070,-90.2830,60.4,2.1,112.0,99.0,'11111222,11111222,11144222' 
ADCP,ioos:station:wmo:42369:1,2015-09-02T11:40:00Z,27.2070,-90.2830,60.4,2.1,112.0,99.0,'11111222,11111222,11144222' 
ADCP,ioos:station:wmo:42369:1,2015-09-02T12:00:00Z,27.2070,-90.2830,60.4,2.1,112.0,99.0,'11111222,11111222,11144222' 
ADCP,ioos:station:wmo:42369:1,2015-09-02T12:20:00Z,27.2070,-90.2830,60.4,2.2,107.0,99.0,'11111222,11111222,11144222' 
ADCP,ioos:station:wmo:42369:1,2015-09-02T12:40:00Z,27.2070,-90.2830,60.4,2.2,107.0,99.0,'11111222,11111222,11144222' 
ADCP,ioos:station:wmo:42369:1,2015-09-02T13:00:00Z,27.2070,-90.2830,60.4,1.9,115.0,99.0,'11111222,11111222,11144222' 
ADCP,ioos:station:wmo:42369:1,2015-09-02T13:20:00Z,27.2070,-90.2830,60.4,1.9,115.0,99.0,'11111222,11111222,11144222' 
ADCP,ioos:station:wmo:42369:1,2015-09-02T13:40:00Z,27.2070,-90.2830,60.4,1.9,115.0,99.0,'11111222,11111222,11144222' 
ADCP,ioos:station:wmo:42369:1,2015-09-02T14:00:00Z,27.2070,-90.2830,60.4,1.9,115.0,99.0,'11111222,11111222,11144222' 
ADCP,ioos:station:wmo:42369:1,2015-09-02T14:20:00Z,27.2070,-90.2830,60.4,1.9,115.0,99.0,'11111222,11111222,11144222' 
ADCP,ioos:station:wmo:42369:1,2015-09-02T14:40:00Z,27.2070,-90.2830,60.4,1.9,115.0,99.0,'11111222,11111222,11144222' 
ADCP,ioos:station:wmo:42369:1,2015-09-02T15:00:00Z,27.2070,-90.2830,60.4,1.9,115.0,99.0,'11111222,11111222,11144222' 
ADCP,ioos:station:wmo:42369:1,2015-09-02T15:20:00Z,27.2070,-90.2830,60.4,2.9,116.0,99.0,'11111222,11111222,11144222' 
ADCP,ioos:station:wmo:42369:1,2015-09-02T15:40:00Z,27.2070,-90.2830,60.4,2.9,116.0,99.0,'11111222,11111222,11144222' 
ADCP,ioos:station:wmo:42369:1,2015-09-02T16:00:00Z,27.2070,-90.2830,60.4,2.9,116.0,99.0,'11111222,11111222,11144222' 
ADCP,ioos:station:wmo:42369:1,2015-09-02T16:20:00Z,27.2070,-90.2830,60.4,2.9,116.0,99.0,'11111222,11111222,11144222' 
ADCP,ioos:station:wmo:42369:1,2015-09-02T16:40:00Z,27.2070,-90.2830,60.4,2.9,116.0,99.0,'11111222,11111222,11144222' 
ADCP,ioos:station:wmo:42369:1,2015-09-02T17:00:00Z,27.2070,-90.2830,60.4,2.9,116.0,99.0,'11111222,11111222,11144222' 
ADCP,ioos:station:wmo:42369:1,2015-09-02T17:20:00Z,27.2070,-90.2830,60.4,2.9,116.0,99.0,'11111222,11111222,11144222' 
ADCP,ioos:station:wmo:42369:1,2015-09-02T17:40:00Z,27.2070,-90.2830,60.4,2.9,116.0,99.0,'11111222,11111222,11144222' 
ADCP,ioos:station:wmo:42369:1,2015-09-02T18:00:00Z,27.2070,-90.2830,60.4,2.9,116.0,99.0,'11111222,11111222,11144222' 
ADCP,ioos:station:wmo:42369:1,2015-09-02T18:20:00Z,27.2070,-90.2830,60.4,4.8,151.0,99.0,'11111222,11111222,11144222' 
ADCP,ioos:station:wmo:42369:1,2015-09-02T18:40:00Z,27.2070,-90.2830,60.4,4.8,151.0,99.0,'11111222,11111222,11144222' 
ADCP,ioos:station:wmo:42369:1,2015-09-02T19:00:00Z,27.2070,-90.2830,60.4,4.8,151.0,99.0,'11111222,11111222,11144222' 
ADCP,ioos:station:wmo:42369:1,2015-09-02T19:20:00Z,27.2070,-90.2830,60.4,4.8,151.0,99.0,'11111222,11111222,11144222' 
ADCP,ioos:station:wmo:42369:1,2015-09-02T19:40:00Z,27.2070,-90.2830,60.4,4.8,151.0,99.0,'11111222,11111222,11144222' 
ADCP,ioos:station:wmo:42369:1,2015-09-02T20:00:00Z,27.2070,-90.2830,60.4,2.0,58.0,99.0,'11111222,11111222,11144222' 
ADCP,ioos:station:wmo:42369:1,2015-09-02T20:20:00Z,27.2070,-90.2830,60.4,2.0,58.0,99.0,'11111222,11111222,11144222' 
ADCP,ioos:station:wmo:42369:1,2015-09-02T20:40:00Z,27.2070,-90.2830,60.4,2.0,58.0,99.0,'11111222,11111222,11144222' 
ADCP,ioos:station:wmo:42369:1,2015-09-02T21:00:00Z,27.2070,-90.2830,60.4,2.0,58.0,99.0,'11111222,11111222,11144222' 
ADCP,ioos:station:wmo:42369:1,2015-09-02T21:20:00Z,27.2070,-90.2830,60.4,2.0,58.0,99.0,'11111222,11111222,11144222' 
ADCP,ioos:station:wmo:42369:1,2015-09-02T21:40:00Z,27.2070,-90.2830,60.4,0.4,151.0,99.0,'11111222,11111222,11144222' 
ADCP,ioos:station:wmo:42369:1,2015-09-02T22:00:00Z,27.2070,-90.2830,60.4,1.1,59.0,99.0,'11111222,11111222,11144222' 
ADCP,ioos:station:wmo:42369:1,2015-09-02T22:20:00Z,27.2070,-90.2830,60.4,1.1,59.0,99.0,'11111222,11111222,11144222' 
ADCP,ioos:station:wmo:42369:1,2015-09-02T22:40:00Z,27.2070,-90.2830,60.4,1.1,59.0,99.0,'11111222,11111222,11144222' 
ADCP,ioos:station:wmo:42369:1,2015-09-02T23:00:00Z,27.2070,-90.2830,60.4,1.5,119.0,99.0,'11111222,11111222,11144222' 
ADCP,ioos:station:wmo:42369:1,2015-09-02T23:20:00Z,27.2070,-90.2830,60.4,0.6,73.0,99.0,'11111222,11111222,11144222' 
ADCP,ioos:station:wmo:42369:1,2015-09-02T23:40:00Z,27.2070,-90.2830,60.4,0.6,73.0,99.0,'11111222,11111222,11144222' 
ADCP,ioos:station:wmo:42369:1,2015-09-03T00:00:00Z,27.2070,-90.2830,60.4,0.6,62.0,99.0,'11111222,11111222,11144222' 
ADCP,ioos:station:wmo:42369:1,2015-09-03T00:20:00Z,27.2070,-90.2830,60.4,0.6,62.0,99.0,'11111222,11111222,11144222' 
ADCP,ioos:station:wmo:42369:1,2015-09-03T00:40:00Z,27.2070,-90.2830,60.4,0.5,139.0,99.0,'11111222,11111222,11144222' 
ADCP,ioos:station:wmo:42369:1,2015-09-03T01:00:00Z,27.2070,-90.2830,60.4,5.6,97.0,99.0,'11111222,11111222,11144222' 
ADCP,ioos:station:wmo:42369:1,2015-09-03T01:20:00Z,27.2070,-90.2830,60.4,4.5,124.0,99.0,'11111222,11111222,11144222' 
ADCP,ioos:station:wmo:42369:1,2015-09-03T01:40:00Z,27.2070,-90.2830,60.4,5.3,93.0,99.0,'11111222,11111222,11144222' 
ADCP,ioos:station:wmo:42369:1,2015-09-03T02:00:00Z,27.2070,-90.2830,60.4,11.4,137.0,99.0,'11111222,11111222,11144222' 
ADCP,ioos:station:wmo:42369:1,2015-09-03T02:20:00Z,27.2070,-90.2830,60.4,8.7,138.0,99.0,'11111222,11111222,11144222' 
ADCP,ioos:station:wmo:42369:1,2015-09-03T02:40:00Z,27.2070,-90.2830,60.4,3.1,138.0,99.0,'11111222,11111222,11144222' 
ADCP,ioos:station:wmo:42369:1,2015-09-03T03:00:00Z,27.2070,-90.2830,60.4,2.3,111.0,99.0,'11111222,11111222,11144222' 
ADCP,ioos:station:wmo:42369:1,2015-09-03T03:20:00Z,27.2070,-90.2830,60.4,1.8,87.0,99.0,'11111222,11111222,11144222' 
ADCP,ioos:station:wmo:42369:1,2015-09-03T03:40:00Z,27.2070,-90.2830,60.4,2.9,56.0,99.0,'11111222,11111222,11144222' 
ADCP,ioos:station:wmo:42369:1,2015-09-03T04:00:00Z,27.2070,-90.2830,60.4,4.2,57.0,99.0,'11111222,11111222,11144222' 
ADCP,ioos:station:wmo:42369:1,2015-09-03T04:20:00Z,27.2070,-90.2830,60.4,4.2,57.0,99.0,'11111222,11111222,11144222' 
ADCP,ioos:station:wmo:42369:1,2015-09-03T04:40:00Z,27.2070,-90.2830,60.4,6.5,84.0,99.0,'11111222,11111222,11144222' 
ADCP,ioos:station:wmo:42369:1,2015-09-03T05:00:00Z,27.2070,-90.2830,60.4,6.5,84.0,99.0,'11111222,11111222,11144222' 
ADCP,ioos:station:wmo:42369:1,2015-09-03T05:20:00Z,27.2070,-90.2830,60.4,3.6,107.0,99.0,'11111222,11111222,11144222' 
ADCP,ioos:station:wmo:42369:1,2015-09-03T05:40:00Z,27.2070,-90.2830,60.4,3.6,107.0,99.0,'11111222,11111222,11144222' 
ADCP,ioos:station:wmo:42369:1,2015-09-03T06:00:00Z,27.2070,-90.2830,60.4,2.6,110.0,99.0,'11111222,11111222,11144222' 
ADCP,ioos:station:wmo:42369:1,2015-09-03T06:20:00Z,27.2070,-90.2830,60.4,2.9,111.0,99.0,'11111222,11111222,11144222' 
ADCP,ioos:station:wmo:42369:1,2015-09-03T06:40:00Z,27.2070,-90.2830,60.4,2.9,111.0,99.0,'11111222,11111222,11144222' 
ADCP,ioos:station:wmo:42369:1,2015-09-03T07:00:00Z,27.2070,-90.2830,60.4,3.1,116.0,99.0,'11111222,11111222,11144222' 
ADCP,ioos:station:wmo:42369:1,2015-09-03T07:20:00Z,27.2070,-90.2830,60.4,2.7,116.0,99.0,'11111222,11111222,11144222' 
ADCP,ioos:station:wmo:42369:1,2015-09-03T07:40:00Z,27.2070,-90.2830,60.4,4.2,118.0,99.0,'11111222,11111222,11144222' 
ADCP,ioos:station:wmo:42369:1,2015-09-03T08:00:00Z,27.2070,-90.2830,60.4,4.2,118.0,99.0,'11111222,11111222,11144222' 
ADCP,ioos:station:wmo:42369:1,2015-09-03T08:20:00Z,27.2070,-90.2830,60.4,6.0,124.0,99.0,'11111222,11111222,11144222' 
ADCP,ioos:station:wmo:42369:1,2015-09-03T08:40:00Z,27.2070,-90.2830,60.4,6.9,131.0,99.0,'11111222,11111222,11144222' 
ADCP,ioos:station:wmo:42369:1,2015-09-03T09:00:00Z,27.2070,-90.2830,60.4,7.1,131.0,99.0,'11111222,11111222,11144222' 
ADCP,ioos:station:wmo:42369:1,2015-09-03T09:20:00Z,27.2070,-90.2830,60.4,7.1,128.0,99.0,'11111222,11111222,11144222' 
ADCP,ioos:station:wmo:42369:1,2015-09-03T09:40:00Z,27.2070,-90.2830,60.4,6.1,124.0,99.0,'11111222,11111222,11144222' 
ADCP,ioos:station:wmo:42369:1,2015-09-03T10:00:00Z,27.2070,-90.2830,60.4,6.1,124.0,99.0,'11111222,11111222,11144222' 
ADCP,ioos:station:wmo:42369:1,2015-09-03T10:20:00Z,27.2070,-90.2830,60.4,2.4,114.0,99.0,'11111222,11111222,11144222' 
ADCP,ioos:station:wmo:42369:1,2015-09-03T10:40:00Z,27.2070,-90.2830,60.4,2.3,110.0,99.0,'11111222,11111222,11144222' 
ADCP,ioos:station:wmo:42369:1,2015-09-03T11:00:00Z,27.2070,-90.2830,60.4,3.7,95.0,99.0,'11111222,11111222,11144222' 
ADCP,ioos:station:wmo:42369:1,2015-09-03T11:20:00Z,27.2070,-90.2830,60.4,3.7,95.0,99.0,'11111222,11111222,11144222' 
ADCP,ioos:station:wmo:42369:1,2015-09-03T11:40:00Z,27.2070,-90.2830,60.4,3.7,95.0,99.0,'11111222,11111222,11144222' 
ADCP,ioos:station:wmo:42369:1,2015-09-03T12:00:00Z,27.2070,-90.2830,60.4,4.5,96.0,99.0,'11111222,11111222,11144222' 
ADCP,ioos:station:wmo:42369:1,2015-09-03T12:20:00Z,27.2070,-90.2830,60.4,4.5,96.0,99.0,'11111222,11111222,11144222' 
ADCP,ioos:station:wmo:42369:1,2015-09-03T12:40:00Z,27.2070,-90.2830,60.4,9.1,138.0,99.0,'11111222,11111222,11144222' 
ADCP,ioos:station:wmo:42369:1,2015-09-03T13:00:00Z,27.2070,-90.2830,60.4,9.1,138.0,99.0,'11111222,11111222,11144222' 
ADCP,ioos:station:wmo:42369:1,2015-09-03T13:20:00Z,27.2070,-90.2830,60.4,9.9,174.0,99.0,'11111222,11111222,11144222' 
ADCP,ioos:station:wmo:42369:1,2015-09-03T13:40:00Z,27.2070,-90.2830,60.4,9.9,174.0,99.0,'11111222,11111222,11144222' 
ADCP,ioos:station:wmo:42369:1,2015-09-03T14:00:00Z,27.2070,-90.2830,60.4,9.9,174.0,99.0,'11111222,11111222,11144222' 
ADCP,ioos:station:wmo:42369:1,2015-09-03T14:20:00Z,27.2070,-90.2830,60.4,9.9,174.0,99.0,'11111222,11111222,11144222' 
ADCP,ioos:station:wmo:42369:1,2015-09-03T14:40:00Z,27.2070,-90.2830,60.4,9.9,174.0,99.0,'11111222,11111222,11144222' 
ADCP,ioos:station:wmo:42369:1,2015-09-03T15:00:00Z,27.2070,-90.2830,60.4,8.4,135.0,99.0,'11111222,11111222,11144222' 
ADCP,ioos:station:wmo:42369:1,2015-09-03T15:20:00Z,27.2070,-90.2830,60.4,6.4,123.0,99.0,'11111222,11111222,11144222' 
ADCP,ioos:station:wmo:42369:1,2015-09-03T15:40:00Z,27.2070,-90.2830,60.4,4.4,118.0,99.0,'11111222,11111222,11144222' 
ADCP,ioos:station:wmo:42369:1,2015-09-03T16:00:00Z,27.2070,-90.2830,60.4,4.4,118.0,99.0,'11111222,11111222,11144222' 
ADCP,ioos:station:wmo:42369:1,2015-09-03T16:20:00Z,27.2070,-90.2830,60.4,4.4,123.0,99.0,'11111222,11111222,11144222' 
ADCP,ioos:station:wmo:42369:1,2015-09-03T16:40:00Z,27.2070,-90.2830,60.4,3.8,120.0,99.0,'11111222,11111222,11144222' 
ADCP,ioos:station:wmo:42369:1,2015-09-03T17:00:00Z,27.2070,-90.2830,60.4,3.8,120.0,99.0,'11111222,11111222,11144222' 
ADCP,ioos:station:wmo:42369:1,2015-09-03T17:20:00Z,27.2070,-90.2830,60.4,3.3,117.0,99.0,'11111222,11111222,11144222' 
ADCP,ioos:station:wmo:42369:1,2015-09-03T17:40:00Z,27.2070,-90.2830,60.4,2.3,112.0,99.0,'11111222,11111222,11144222' 
ADCP,ioos:station:wmo:42369:1,2015-09-03T18:00:00Z,27.2070,-90.2830,60.4,2.9,120.0,99.0,'11111222,11111222,11144222' 
ADCP,ioos:station:wmo:42369:1,2015-09-03T18:20:00Z,27.2070,-90.2830,60.4,3.3,121.0,99.0,'11111222,11111222,11144222' 
ADCP,ioos:station:wmo:42369:1,2015-09-03T18:40:00Z,27.2070,-90.2830,60.4,3.3,121.0,99.0,'11111222,11111222,11144222' 
ADCP,ioos:station:wmo:42369:1,2015-09-03T19:00:00Z,27.2070,-90.2830,60.4,3.3,121.0,99.0,'11111222,11111222,11144222' 
ADCP,ioos:station:wmo:42369:1,2015-09-03T19:20:00Z,27.2070,-90.2830,60.4,3.7,120.0,99.0,'11111222,11111222,11144222' 